Temp
71 72 74 75 75 75 75 75 75 75 76 76 76 76 76 76 76 75 75 76 77 78 78 78 78 78 78 77 76 76 75 75 75 75 76 77 78 77 76 75 75 75 75
73 73 73 75 75 76 75 75 75 75 76 76 76 76 76 75 75 75 75 76 77 77 78 77 77 77 77 76 75 75 74 74 74 75 75 77 77 77 76 75 74 74 75
73 73 74 74 75 76 76 75 75 76 76 76 76 75 75 75 75 75 75 75 76 77 77 77 77 77 76 75 74 74 74 74 74 74 74 71 73 76 76 74 74 75 75
74 73 73 74 74 75 75 75 75 76 76 76 76 75 75 75 75 75 75 75 76 77 77 77 77 76 75 74 73 73 74 73 73 73 71 73 76 76 76 75 75 75 75
74 73 73 73 73 74 74 75 75 75 75 75 75 76 75 75 75 75 74 75 76 77 77 77 76 75 73 73 73 73 73 72 71 71 72 71 72 76 76 75 75 74 74
73 73 71 72 73 74 74 74 74 74 74 74 74 75 75 75 75 75 74 75 76 77 77 76 75 74 73 72 73 73 72 71 71 70 70 72 73 76 76 74 73 73 73
71 71 71 71 72 74 74 74 74 73 73 73 74 74 75 75 75 74 74 75 75 75 75 74 74 73 73 72 73 72 71 70 70 70 70 71 73 76 76 75 74 73 73
71 71 72 72 72 72 73 73 72 72 73 73 73 74 74 74 74 74 74 74 74 74 73 73 73 73 72 72 72 71 69 70 71 69 71 71 73 75 76 75 73 72 72
72 70 70 71 72 71 71 71 71 71 72 72 72 73 73 72 73 73 73 73 73 73 73 73 72 72 72 71 71 70 69 69 67 68 72 69 73 75 77 75 74 73 72
70 69 69 69 70 70 70 70 70 71 71 71 72 71 71 71 72 72 72 73 73 72 72 73 72 71 71 70 70 69 68 69 67 68 68 66 72 75 77 75 74 73 72
70 70 69 69 69 69 69 71 71 71 71 71 71 71 69 69 70 71 71 71 72 71 71 70 69 68 68 69 70 69 69 68 68 68 68 68 73 74 75 72 73 72 72
68 68 69 69 68 69 74 69 69 71 70 69 70 69 68 68 68 71 70 70 69 68 68 68 67 67 66 66 66 69 66 67 67 66 67 69 73 75 74 71 73 72 72
70 71 70 69 69 69 71 68 68 68 68 68 68 68 68 68 68 68 68 67 64 66 65 66 65 66 66 66 66 67 66 66 65 66 66 66 68 73 75 73 74 73 72
70 71 71 71 70 70 70 69 68 69 68 68 68 68 67 67 66 67 65 62 61 61 62 62 63 64 65 66 67 65 64 64 63 64 65 65 67 70 75 75 74 72 71
71 72 71 72 71 70 69 69 69 68 67 68 68 68 68 65 62 62 61 61 61 61 61 61 63 65 66 65 64 63 62 62 62 63 63 64 66 70 74 74 72 71 70
73 72 73 72 71 70 70 68 67 67 67 67 67 67 67 63 61 60 60 60 60 60 60 61 62 65 63 62 61 61 61 61 61 61 61 62 63 67 69 70 70 70 69
75 74 72 71 69 69 67 67 66 66 65 64 63 64 63 62 61 60 59 59 59 59 60 60 61 63 61 62 59 59 59 59 59 58 58 59 60 61 64 67 68 69 68
74 73 73 74 68 66 66 65 65 65 64 62 62 63 62 61 61 60 60 59 59 58 59 61 62 60 59 57 56 56 57 58 58 58 57 57 57 59 60 63 65 66 66
73 72 68 66 65 64 63 62 62 62 62 62 62 60 60 61 61 60 60 59 59 59 58 60 58 57 56 55 55 53 55 55 56 58 57 57 57 57 57 60 61 63 64
70 69 65 63 62 62 62 62 61 62 62 62 60 59 59 60 61 59 58 57 58 57 57 57 57 55 53 53 55 51 50 52 53 53 55 57 56 56 55 55 55 57 61
66 65 64 62 61 62 61 60 60 60 61 60 60 58 58 58 58 58 57 56 56 57 56 58 55 52 51 51 50 52 51 51 51 52 53 53 55 56 55 54 54 53 54
63 62 62 61 61 60 60 58 59 60 60 60 58 56 56 57 57 57 55 54 55 55 55 56 56 54 52 53 50 50 49 50 50 50 50 51 51 53 54 56 55 54 52
62 62 61 61 61 61 59 60 60 61 59 56 52 53 55 56 56 55 54 53 53 53 53 52 53 56 53 52 55 55 50 48 48 46 49 49 50 50 52 53 54 54 52
60 61 61 61 61 61 60 60 62 58 54 53 53 53 53 55 54 54 54 53 53 52 52 52 53 52 52 50 52 56 55 51 49 46 45 47 49 50 50 51 52 52 52
59 60 61 61 61 62 63 63 60 59 55 53 53 53 53 53 54 55 54 53 53 52 52 52 51 50 50 49 49 48 49 53 53 50 46 43 45 48 50 51 50 49 50
60 60 60 61 62 63 63 63 62 61 55 53 52 52 52 52 52 53 55 53 53 52 52 51 50 50 49 48 48 48 48 47 49 51 47 43 44 43 47 49 49 48 47
MSLP
1013.87 1013.63 1013.76 1013.79 1013.94 1014.16 1014.38 1014.72 1014.98 1015.35 1015.62 1015.72 1015.95 1016.20 1016.40 1016.57 1016.82 1016.98 1017.07 1017.08 1017.21 1017.51 1017.62 1017.70 1017.86 1017.83 1017.78 1017.72 1017.86 1017.94 1017.91 1017.91 1018.00 1018.03 1017.99 1017.99 1018.02 1017.97 1018.19 1018.34 1018.32 1018.35 1018.42
1012.53 1013.08 1013.40 1013.68 1014.02 1014.35 1014.68 1014.92 1015.21 1015.45 1015.69 1015.95 1016.20 1016.42 1016.71 1016.85 1016.94 1017.09 1017.19 1017.29 1017.46 1017.58 1017.82 1018.03 1018.19 1018.28 1018.40 1018.37 1018.35 1018.33 1018.38 1018.39 1018.32 1018.25 1018.23 1018.24 1018.26 1018.31 1018.33 1018.58 1018.85 1018.86 1018.77
1012.35 1013.04 1013.34 1013.57 1013.98 1014.38 1014.71 1014.97 1015.09 1015.42 1015.85 1016.20 1016.47 1016.77 1016.95 1017.14 1017.26 1017.26 1017.32 1017.42 1017.55 1017.78 1018.01 1018.23 1018.46 1018.68 1018.81 1018.96 1018.87 1018.82 1018.90 1018.88 1018.78 1018.71 1018.70 1018.79 1018.71 1018.73 1018.84 1018.74 1018.76 1018.99 1019.03
1012.17 1013.08 1013.41 1013.77 1014.32 1014.58 1014.91 1015.24 1015.51 1015.65 1015.97 1016.39 1016.67 1016.90 1017.09 1017.32 1017.54 1017.66 1017.65 1017.74 1017.84 1017.94 1018.09 1018.31 1018.51 1018.68 1019.02 1019.26 1019.28 1019.30 1019.30 1019.30 1019.07 1018.90 1018.94 1018.92 1018.93 1018.87 1018.92 1019.03 1018.92 1018.98 1019.17
1012.60 1013.15 1013.65 1013.92 1014.34 1014.73 1014.85 1015.15 1015.56 1015.88 1016.20 1016.57 1016.84 1017.09 1017.36 1017.52 1017.63 1017.71 1017.86 1017.97 1018.09 1018.25 1018.45 1018.59 1018.66 1018.78 1018.91 1019.32 1019.50 1019.57 1019.58 1019.56 1019.41 1019.32 1019.05 1018.86 1018.85 1019.01 1018.96 1019.05 1019.19 1019.16 1019.16
1013.11 1013.54 1014.00 1014.18 1014.33 1014.61 1014.99 1015.29 1015.65 1015.99 1016.32 1016.67 1017.03 1017.26 1017.53 1017.69 1017.77 1017.85 1017.96 1018.00 1018.18 1018.36 1018.63 1018.90 1019.13 1019.15 1019.13 1019.31 1019.53 1019.70 1019.70 1019.57 1019.42 1019.28 1018.90 1018.74 1018.80 1018.73 1019.03 1019.12 1019.33 1019.43 1019.45
1013.35 1013.80 1014.32 1014.44 1014.56 1014.76 1015.06 1015.37 1015.72 1016.10 1016.49 1016.94 1017.25 1017.45 1017.64 1017.69 1017.88 1017.96 1018.10 1018.20 1018.30 1018.58 1018.85 1019.13 1019.29 1019.35 1019.33 1019.46 1019.62 1019.82 1019.70 1019.49 1019.20 1019.05 1018.60 1018.46 1018.87 1019.02 1018.97 1019.11 1019.39 1019.55 1019.63
1013.19 1013.96 1014.38 1014.68 1014.84 1015.02 1015.19 1015.48 1015.80 1016.16 1016.58 1016.93 1017.19 1017.50 1017.59 1017.73 1017.96 1018.20 1018.37 1018.46 1018.50 1018.79 1019.08 1019.22 1019.37 1019.51 1019.46 1019.61 1019.66 1019.82 1019.98 1019.68 1019.37 1019.01 1018.62 1018.62 1018.70 1018.91 1019.05 1019.08 1019.29 1019.54 1019.64
1013.24 1013.74 1014.29 1014.63 1014.89 1015.18 1015.38 1015.64 1015.97 1016.43 1016.84 1017.00 1017.22 1017.47 1017.64 1017.79 1018.03 1018.28 1018.52 1018.55 1018.54 1018.74 1018.86 1019.01 1019.20 1019.30 1019.52 1019.70 1019.91 1019.97 1020.09 1020.04 1019.68 1019.31 1018.90 1018.77 1018.89 1018.85 1018.88 1019.21 1019.26 1019.66 1019.66
1013.77 1013.92 1014.29 1014.65 1014.93 1015.27 1015.51 1015.76 1016.09 1016.42 1016.74 1017.00 1017.28 1017.51 1017.72 1017.97 1018.23 1018.39 1018.57 1018.70 1018.84 1018.84 1018.81 1018.88 1018.89 1019.34 1019.19 1019.39 1019.65 1020.05 1020.09 1019.84 1019.49 1019.44 1018.98 1018.96 1018.75 1018.70 1018.46 1018.93 1019.28 1019.28 1019.72
1013.88 1013.84 1014.04 1014.33 1014.73 1015.19 1015.52 1015.86 1016.14 1016.44 1016.66 1017.04 1017.45 1017.70 1017.95 1018.27 1018.47 1018.67 1018.83 1018.73 1018.72 1018.72 1018.80 1018.94 1019.44 1018.81 1018.27 1018.97 1019.45 1019.64 1019.78 1019.79 1019.36 1019.01 1018.97 1019.01 1018.52 1018.22 1018.64 1018.78 1019.70 1019.29 1019.34
1013.74 1014.01 1014.09 1014.15 1014.36 1014.80 1015.30 1015.82 1016.15 1016.40 1016.75 1017.06 1017.39 1017.60 1017.89 1018.23 1018.47 1018.67 1018.79 1018.94 1018.96 1018.93 1018.94 1019.00 1019.01 1018.92 1018.48 1018.77 1019.78 1019.96 1019.84 1019.68 1019.51 1019.21 1019.13 1018.70 1018.59 1018.48 1018.36 1018.46 1019.44 1019.36 1019.29
1012.82 1013.47 1013.87 1014.14 1014.48 1014.62 1014.98 1015.72 1016.15 1016.48 1016.75 1017.08 1017.40 1017.78 1017.86 1018.04 1018.46 1018.68 1018.91 1019.17 1019.35 1019.29 1019.15 1019.18 1019.18 1018.41 1018.62 1018.88 1019.26 1020.33 1019.89 1019.95 1019.92 1019.80 1019.46 1019.13 1018.76 1018.46 1018.30 1018.66 1018.54 1019.01 1019.07
1012.55 1012.98 1013.46 1013.71 1014.35 1014.40 1014.67 1015.34 1015.90 1016.30 1016.60 1016.96 1017.21 1017.39 1017.83 1018.12 1018.50 1018.78 1019.22 1019.50 1019.45 1019.41 1019.45 1019.47 1018.91 1018.88 1019.18 1018.84 1018.47 1019.99 1019.99 1019.88 1019.86 1019.86 1019.77 1019.00 1018.49 1018.57 1018.43 1018.52 1018.38 1018.07 1018.88
1012.51 1012.76 1013.24 1013.67 1014.07 1014.49 1014.75 1015.15 1015.61 1016.10 1016.44 1016.71 1017.06 1017.33 1017.75 1018.24 1018.80 1019.16 1019.51 1019.61 1019.74 1019.69 1019.51 1019.73 1019.52 1019.49 1019.40 1019.54 1019.47 1020.04 1020.06 1020.36 1020.22 1020.20 1019.91 1019.27 1018.54 1018.49 1018.39 1018.58 1018.70 1018.49 1019.47
1011.89 1012.41 1013.11 1013.37 1013.90 1014.21 1014.52 1014.79 1015.45 1015.95 1016.27 1016.61 1016.95 1017.30 1017.72 1018.29 1018.81 1019.29 1019.52 1019.49 1019.48 1019.67 1019.87 1020.03 1020.14 1019.82 1020.07 1020.21 1020.34 1020.54 1020.99 1020.77 1020.15 1020.76 1020.49 1020.06 1019.28 1019.23 1019.27 1019.45 1019.67 1020.22 1020.68
1011.36 1012.05 1012.87 1013.41 1013.76 1014.13 1014.56 1014.81 1015.28 1015.74 1016.14 1016.74 1017.12 1017.43 1017.95 1018.38 1018.73 1019.06 1019.37 1019.44 1019.43 1019.43 1019.73 1019.82 1020.04 1020.24 1020.61 1020.57 1021.05 1021.20 1021.25 1021.07 1020.99 1021.36 1021.05 1021.05 1020.26 1020.17 1020.26 1020.56 1020.92 1020.84 1021.32
1011.19 1011.99 1012.70 1013.28 1013.84 1014.31 1014.67 1014.97 1015.33 1015.80 1016.29 1016.93 1017.30 1017.64 1018.01 1018.37 1018.72 1019.06 1019.41 1019.55 1019.60 1019.57 1019.54 1019.74 1020.23 1020.72 1021.15 1021.46 1021.79 1022.03 1022.00 1021.77 1021.63 1021.77 1021.49 1021.78 1021.52 1020.69 1020.59 1021.09 1021.63 1021.87 1022.09
1010.73 1011.77 1012.83 1013.44 1014.17 1014.56 1014.87 1015.27 1015.79 1016.07 1016.58 1017.04 1017.42 1017.93 1018.33 1018.66 1018.84 1019.14 1019.42 1019.55 1019.60 1019.86 1019.82 1019.99 1020.64 1021.04 1021.53 1021.92 1022.01 1022.12 1022.19 1022.03 1022.13 1021.93 1022.11 1022.15 1021.91 1022.00 1021.49 1020.79 1021.92 1022.27 1022.36
1011.00 1011.81 1012.83 1013.65 1014.42 1014.97 1015.41 1015.88 1016.36 1016.76 1017.07 1017.51 1017.81 1018.16 1018.55 1018.75 1018.99 1019.31 1019.66 1019.84 1020.00 1020.38 1020.54 1020.42 1020.85 1021.37 1021.91 1022.25 1022.58 1023.01 1022.97 1022.83 1022.82 1022.68 1022.85 1022.73 1022.51 1022.50 1022.59 1022.24 1021.80 1022.27 1022.68
1011.76 1012.26 1012.97 1013.75 1014.59 1015.05 1015.59 1016.13 1016.69 1017.00 1017.38 1017.95 1018.09 1018.38 1018.71 1018.89 1019.16 1019.49 1019.88 1020.12 1020.13 1020.42 1020.60 1020.57 1021.03 1021.55 1022.01 1022.16 1022.22 1022.80 1022.97 1023.14 1023.25 1023.30 1023.48 1023.50 1023.41 1023.30 1023.42 1023.62 1023.65 1022.60 1022.88
1012.14 1012.86 1013.51 1014.11 1014.67 1015.15 1015.43 1015.89 1016.26 1016.83 1017.55 1017.99 1018.46 1018.73 1018.91 1019.09 1019.35 1019.67 1019.98 1020.24 1020.37 1020.54 1020.70 1020.74 1020.82 1021.41 1021.71 1021.99 1022.27 1022.65 1022.94 1023.24 1023.39 1023.71 1023.75 1023.73 1023.82 1023.62 1023.81 1023.79 1023.91 1023.77 1023.70
1012.39 1013.04 1013.72 1014.27 1014.78 1015.20 1015.56 1015.97 1016.53 1017.09 1017.74 1018.43 1018.94 1019.28 1019.49 1019.61 1019.76 1019.90 1020.09 1020.30 1020.49 1020.66 1021.00 1021.16 1021.14 1021.42 1021.93 1022.06 1022.19 1022.41 1022.92 1023.20 1023.58 1023.77 1023.78 1023.61 1023.74 1023.90 1024.07 1024.06 1024.00 1024.11 1024.30
1012.62 1013.17 1013.73 1014.25 1014.70 1015.15 1015.62 1015.94 1016.23 1016.67 1017.73 1018.35 1018.84 1019.38 1019.73 1019.74 1019.86 1019.97 1020.11 1020.23 1020.38 1020.54 1020.72 1020.84 1021.06 1021.30 1021.66 1022.13 1022.33 1022.30 1022.28 1022.51 1023.20 1023.67 1023.84 1023.97 1023.96 1023.90 1023.94 1023.93 1023.99 1024.07 1024.50
1012.70 1013.26 1013.76 1014.31 1014.80 1015.17 1015.59 1015.99 1016.37 1016.92 1017.58 1018.19 1018.76 1019.30 1019.66 1019.68 1019.72 1019.80 1020.07 1020.34 1020.49 1020.53 1020.66 1020.80 1020.93 1021.27 1021.59 1021.96 1022.29 1022.37 1022.36 1022.37 1022.53 1023.04 1023.52 1023.90 1024.19 1024.05 1024.04 1023.93 1024.03 1024.35 1024.47
1012.63 1013.35 1013.93 1014.42 1014.84 1015.29 1015.65 1015.98 1016.25 1016.71 1017.48 1018.23 1018.78 1019.25 1019.50 1019.59 1019.69 1019.70 1019.88 1020.16 1020.29 1020.42 1020.65 1020.88 1021.18 1021.39 1021.59 1021.82 1022.27 1022.51 1022.63 1022.66 1022.64 1022.68 1023.13 1023.52 1023.65 1023.50 1023.54 1023.70 1023.99 1024.10 1024.42
Wind_Speed
5 9 12 13 14 14 14 14 14 13 12 14 13 13 13 14 14 13 12 11 12 11 12 11 11 11 12 13 13 12 11 11 11 12 12 11 10 13 13 11 11 9 11
15 12 14 14 15 15 14 14 14 13 13 13 12 12 12 13 12 11 11 11 11 11 11 11 11 11 11 12 11 10 10 9 9 10 11 13 11 11 14 12 10 8 10
15 11 12 14 15 15 15 15 15 15 13 12 12 12 12 11 11 10 10 10 10 10 10 10 10 10 10 10 10 11 10 9 8 11 9 5 6 12 11 12 11 10 9
15 10 10 13 13 14 14 13 13 14 13 12 12 11 11 11 10 9 9 9 9 9 9 9 10 9 8 9 9 10 9 8 6 7 3 2 3 10 11 10 11 11 9
11 8 9 13 13 14 14 14 13 13 13 12 12 11 11 10 10 9 9 8 7 8 8 8 8 7 6 7 8 9 9 8 7 5 4 2 4 7 11 11 9 10 10
9 7 10 12 13 14 14 13 13 13 12 12 11 11 11 10 10 8 8 8 7 8 7 7 6 5 5 5 5 6 6 4 3 4 7 5 4 11 11 11 9 7 9
9 9 9 11 11 13 13 13 12 12 11 11 11 11 10 9 9 8 8 7 7 7 7 6 5 3 4 6 6 5 3 3 2 3 4 5 5 11 12 11 10 10 8
14 10 9 11 11 11 12 12 11 12 12 12 11 11 10 9 9 7 7 6 6 6 6 5 4 3 5 8 9 5 5 5 3 5 4 4 7 11 11 12 11 10 9
10 11 8 8 9 10 10 11 11 11 11 11 11 11 10 9 9 8 7 6 6 6 6 5 3 3 5 8 11 11 6 5 5 4 4 1 7 9 10 10 11 10 10
8 9 9 7 6 6 6 10 11 11 11 11 11 10 9 9 8 7 6 5 4 4 4 4 4 3 5 5 8 12 7 7 5 5 5 3 8 5 7 12 12 12 10
7 10 10 10 8 7 6 7 10 11 11 10 9 8 6 3 4 4 4 5 5 4 2 7 6 7 12 12 15 13 10 3 5 3 3 6 7 9 7 5 13 12 12
10 8 9 9 10 9 7 6 6 7 5 5 5 6 4 4 4 4 5 4 5 7 6 6 8 9 11 6 5 15 2 3 2 4 3 4 11 10 10 21 18 11 12
14 10 10 10 9 10 7 5 3 3 4 4 6 5 4 3 2 1 2 3 2 3 1 2 1 3 7 2 3 6 3 3 3 2 6 13 12 12 14 12 14 13 9
14 12 13 12 10 9 7 6 6 5 5 4 5 6 4 2 3 3 4 3 2 1 2 1 1 4 3 4 8 2 3 3 2 2 3 10 13 14 15 16 15 16 16
13 12 13 11 10 7 7 6 6 5 4 4 4 5 4 4 4 4 4 4 2 2 2 2 3 2 4 7 8 6 4 6 7 3 3 17 7 4 3 4 2 11 15
14 14 12 12 8 9 7 7 5 4 5 4 4 4 6 5 5 4 4 3 3 3 1 1 2 3 4 5 6 6 5 4 8 6 5 7 18 17 18 17 19 17 15
13 13 13 11 8 8 6 7 6 5 5 5 4 6 6 5 6 5 4 3 2 1 2 4 2 6 4 5 7 6 5 5 8 8 7 6 8 18 16 14 14 15 14
12 13 12 10 9 8 9 6 6 6 6 5 5 5 6 6 6 5 3 1 1 1 2 2 6 5 5 5 4 4 4 6 8 6 6 4 5 5 13 14 11 12 12
14 13 8 9 10 9 8 6 6 7 5 5 5 4 5 5 5 4 3 2 2 2 2 2 3 4 5 4 5 4 3 4 3 5 6 4 5 5 4 16 13 10 10
11 12 11 9 10 9 7 7 6 5 6 4 3 4 5 4 5 4 4 4 3 3 2 3 5 4 3 3 5 5 4 4 4 6 5 4 4 5 4 5 6 7 6
10 11 12 12 9 8 6 6 5 5 5 3 3 5 5 5 5 5 4 4 3 4 2 4 4 4 3 1 3 3 3 5 5 5 4 4 5 4 5 5 4 3 5
9 8 8 9 8 4 4 3 3 4 3 4 3 4 4 5 5 5 5 5 4 4 5 4 3 2 2 3 3 2 2 1 2 2 2 3 4 3 2 2 2 4 4
10 9 8 8 8 6 5 6 5 6 5 3 2 3 2 4 5 6 5 4 4 4 4 2 3 3 2 3 4 2 1 3 1 1 2 2 1 1 2 2 1 3 3
7 7 7 7 7 6 7 5 10 5 4 3 3 3 3 4 4 5 5 5 5 3 4 3 3 2 3 2 1 1 2 3 3 2 1 2 2 2 3 2 2 4 5
9 7 6 6 5 6 6 5 5 6 3 3 4 6 4 4 5 6 5 4 4 4 4 4 4 4 2 3 2 0 1 2 1 2 2 2 2 2 3 3 3 3 4
8 7 6 7 7 8 7 7 7 8 6 5 4 4 4 3 4 6 6 5 4 4 4 4 3 5 4 3 2 1 2 1 2 3 2 2 3 3 3 3 4 5 5
Wind_Direction
186 164 164 152 147 144 138 134 129 124 118 114 110 104 98 96 91 86 84 83 81 79 80 81 81 85 89 94 94 96 92 91 89 86 79 78 97 101 102 95 97 101 106
151 167 164 151 150 147 142 138 132 132 127 120 114 108 102 99 96 94 91 86 84 87 85 84 85 84 80 84 83 83 80 82 92 93 85 81 86 117 106 91 87 91 106
150 158 159 149 150 148 148 144 143 138 132 126 119 112 108 103 100 98 95 93 93 92 88 85 83 77 73 68 67 66 67 65 70 71 65 54 84 105 108 108 107 106 102
144 151 151 144 144 148 144 144 142 140 135 131 126 121 116 110 104 100 96 94 96 100 99 96 92 84 71 64 59 59 54 46 22 4 26 31 106 124 123 118 118 117 105
138 139 145 140 143 147 147 146 145 140 138 135 131 126 121 118 115 111 105 102 99 100 97 97 98 93 81 71 62 58 52 29 348 342 307 260 158 152 143 140 132 129 124
128 120 133 138 144 148 149 148 146 143 141 139 134 131 126 125 129 124 119 116 110 107 101 94 82 71 52 40 56 59 60 33 338 307 249 249 191 163 162 147 152 137 134
125 121 138 141 143 146 147 147 147 146 143 138 138 136 133 141 140 139 132 122 114 106 101 94 87 59 12 350 358 20 40 345 346 324 11 132 169 173 169 151 154 151 148
135 133 142 143 143 143 147 148 149 147 146 144 147 142 149 152 151 148 137 129 125 111 103 97 81 19 353 335 327 334 339 341 327 303 224 163 172 185 168 160 155 159 155
129 135 139 142 147 145 150 150 148 147 148 153 154 152 159 160 160 155 150 153 145 138 139 132 113 68 355 337 323 323 346 328 297 278 247 190 189 213 174 176 165 172 163
120 130 137 137 141 146 154 149 152 151 156 160 158 160 164 165 163 169 164 172 164 165 172 145 117 35 17 334 316 311 318 320 297 282 254 209 181 190 208 178 187 172 169
155 160 155 153 150 149 147 157 152 156 162 158 158 163 154 147 169 167 175 192 188 178 124 66 50 85 65 11 337 300 278 269 305 288 281 184 192 206 169 34 232 184 166
171 174 166 162 161 153 155 146 151 156 153 153 157 159 167 161 184 180 196 208 75 111 116 103 71 58 48 47 338 327 316 335 359 357 12 191 188 233 184 179 237 196 168
170 167 171 166 166 158 153 153 150 145 159 162 162 177 177 167 162 81 122 87 68 50 67 282 309 62 53 125 30 296 353 61 57 12 332 316 251 219 235 208 230 213 177
174 169 171 170 170 172 150 161 159 170 171 171 184 178 164 143 127 108 97 90 103 92 38 11 337 75 30 59 67 112 0 51 60 37 345 329 244 239 238 236 210 165 129
172 169 172 171 171 166 157 161 166 170 172 167 174 176 150 133 118 115 115 142 182 213 198 268 48 31 54 79 101 76 55 23 15 36 13 16 42 58 109 213 162 95 107
166 173 173 174 155 160 181 150 135 147 160 154 152 150 124 125 126 125 128 160 218 223 216 230 88 48 68 73 89 89 60 46 74 30 17 27 53 64 77 90 94 89 85
174 161 170 171 148 155 124 126 138 145 127 115 115 109 116 124 134 139 149 190 226 219 192 128 108 103 91 82 59 55 55 61 65 30 28 12 51 55 61 78 91 95 92
147 165 164 160 132 124 129 119 121 124 112 110 108 109 114 124 134 138 155 206 188 254 335 39 122 106 84 73 79 59 51 52 68 57 54 22 9 70 72 68 77 89 94
143 146 140 121 128 127 108 105 102 101 103 103 106 107 117 130 137 123 124 131 105 78 50 122 102 116 116 110 90 59 49 71 68 96 74 40 50 34 63 94 76 79 104
129 128 121 116 119 117 109 101 93 99 97 100 123 117 126 124 114 120 107 86 69 74 53 61 92 68 85 92 88 64 36 36 38 40 30 41 46 52 38 66 107 85 82
99 121 133 135 133 135 130 126 126 127 124 109 95 109 114 116 117 117 103 98 79 92 98 116 110 88 77 78 78 48 48 36 36 35 22 20 12 30 34 19 348 76 67
117 117 119 129 137 124 118 122 123 133 100 98 99 108 125 111 99 105 112 97 97 105 82 64 93 133 100 191 117 128 36 15 46 39 32 28 20 27 27 100 63 57 71
130 133 134 144 145 138 117 109 95 82 81 85 103 84 85 101 103 111 115 125 118 107 116 111 108 119 137 218 229 132 97 238 220 138 218 178 172 107 22 47 204 103 82
127 126 136 136 138 138 145 138 161 149 146 162 134 123 125 126 126 133 144 155 152 153 153 149 143 134 120 168 334 321 270 131 197 297 311 271 257 207 208 180 117 118 124
137 138 132 139 141 150 161 166 141 120 101 115 113 133 149 164 170 174 172 172 172 157 133 133 131 136 133 129 163 270 323 191 153 171 237 231 270 244 222 192 164 136 135
129 137 144 153 161 169 165 163 154 156 140 132 140 156 177 183 190 190 187 186 179 156 165 166 155 160 158 143 135 158 178 192 251 206 169 195 211 219 199 202 180 157 155